Date String (YYYY-MM-DD hh:mm:ss) UTC,Instrument flags,Ambient pressure (hPa),Sample flow (lpm),Bypass flow (lpm),Sample temperature (°C),Ambient temperature (°C),ASC tube jacket temperature (°C),LED temperature (°C),Box temperature (°C),Sample RH (%),Span deviation,Mass concentration (μg/m³),Mass concentration (μg/m³),Mass concentration (μg/m³)
DateTimeUTC,F1_M11,P_M11,Q1_M11,Q2_M11,T1_M11,T2_M11,T3_M11,T4_M11,T5_M11,U1_M11,ZSPAN_M11,X0_M11,X2_M11,X1_M11
2021-12-18 13:00:00,,0830.1,5.00,0.00,22.5,22.2,00.0,31.4,24.1,08.6,0000.0,0011.19,0004.57,0003.87
2021-12-18 13:01:00,,0830.2,5.01,0.00,22.4,22.0,00.0,31.4,24.0,08.6,0000.0,0011.88,0004.60,0003.88
2021-12-18 13:02:00,,0830.2,5.00,0.00,22.4,21.8,00.0,31.4,23.9,08.7,0000.0,0012.08,0004.65,0003.91
2021-12-18 13:03:00,,0830.2,5.01,0.00,22.3,21.6,00.0,31.4,23.8,08.7,0000.0,0013.14,0004.73,0003.95
2021-12-18 13:04:00,,0830.2,4.99,0.00,22.2,21.5,00.0,31.4,23.7,08.7,0000.0,0013.51,0004.80,0003.98
2021-12-18 13:05:00,,0830.2,5.00,0.00,22.2,21.4,00.0,31.3,23.7,08.8,0000.0,0013.33,0004.82,0004.00
2021-12-18 13:06:00,,0830.3,4.99,0.00,22.2,21.7,00.0,31.3,23.8,08.8,0000.0,0013.09,0004.85,0004.01
2021-12-18 13:07:00,,0830.2,5.01,0.00,22.3,22.4,00.0,31.4,24.0,08.7,0000.0,0012.76,0004.83,0004.04
2021-12-18 13:08:00,,0830.2,4.99,0.00,22.4,23.1,00.0,31.4,24.3,08.7,0000.0,0013.18,0004.84,0004.10
2021-12-18 13:09:00,,0830.3,5.02,0.00,22.6,23.3,00.0,31.4,24.5,08.6,0000.0,0013.21,0004.88,0004.15
2021-12-18 13:10:00,,0830.2,5.01,0.00,22.6,23.0,00.0,31.4,24.4,08.6,0000.0,0012.82,0004.91,0004.20
2021-12-18 13:11:00,,0830.2,4.99,0.00,22.6,22.7,00.0,31.4,24.3,08.6,0000.0,0012.03,0004.91,0004.24
2021-12-18 13:12:00,,0830.2,5.00,0.00,22.5,22.4,00.0,31.4,24.2,08.6,0000.0,0011.55,0004.90,0004.27
2021-12-18 13:13:00,,0830.3,5.00,0.00,22.5,22.2,00.0,31.4,24.1,08.6,0000.0,0011.75,0004.90,0004.29
2021-12-18 13:14:00,,0830.3,5.01,0.00,22.4,21.9,00.0,31.4,24.0,08.7,0000.0,0011.24,0004.91,0004.31
2021-12-18 13:15:00,,0830.2,5.00,0.00,22.3,21.7,00.0,31.4,23.9,08.7,0000.0,0011.07,0004.90,0004.32
2021-12-18 13:16:00,,0830.3,5.01,0.00,22.3,21.6,00.0,31.4,23.8,08.7,0000.0,0011.74,0004.92,0004.35
2021-12-18 13:17:00,,0830.3,4.98,0.00,22.2,21.4,00.0,31.4,23.7,08.7,0000.0,0012.26,0004.94,0004.36
2021-12-18 13:18:00,,0830.3,5.02,0.00,22.2,21.5,00.0,31.3,23.7,08.7,0000.0,0012.99,0004.97,0004.37
2021-12-18 13:19:00,,0830.3,5.00,0.00,22.3,22.2,00.0,31.4,23.9,08.7,0000.0,0012.38,0005.00,0004.39
2021-12-18 13:20:00,,0830.3,5.00,0.00,22.4,22.9,00.0,31.4,24.2,08.7,0000.0,0012.74,0005.06,0004.43
2021-12-18 13:21:00,,0830.3,4.99,0.00,22.6,23.4,00.0,31.4,24.5,08.6,0000.0,0012.86,0005.08,0004.46
2021-12-18 13:22:00,,0830.3,5.01,0.00,22.6,23.1,00.0,31.5,24.5,08.6,0000.0,0013.32,0005.16,0004.50
2021-12-18 13:23:00,,0830.4,4.99,0.00,22.6,22.8,00.0,31.5,24.3,08.6,0000.0,0013.57,0005.22,0004.54
2021-12-18 13:24:00,,0830.4,5.00,0.00,22.6,22.5,00.0,31.5,24.2,08.6,0000.0,0013.70,0005.26,0004.56
2021-12-18 13:25:00,,0830.4,5.00,0.00,22.5,22.3,00.0,31.5,24.1,08.6,0000.0,0013.99,0005.31,0004.59
2021-12-18 13:26:00,,0830.3,5.01,0.00,22.5,22.0,00.0,31.5,24.0,08.6,0000.0,0014.17,0005.36,0004.60
2021-12-18 13:27:00,,0830.4,4.99,0.00,22.4,21.8,00.0,31.4,23.9,08.5,0000.0,0013.58,0005.37,0004.60
2021-12-18 13:28:00,,0830.3,5.00,0.00,22.3,21.7,00.0,31.4,23.9,08.6,0000.0,0013.00,0005.37,0004.61
2021-12-18 13:29:00,,0830.3,5.00,0.00,22.3,21.6,00.0,31.4,23.8,08.7,0000.0,0012.64,0005.39,0004.63
2021-12-18 13:30:00,,0830.3,5.01,0.00,22.2,21.4,00.0,31.4,23.7,08.7,0000.0,0012.80,0005.42,0004.65
2021-12-18 13:31:00,,0830.4,5.01,0.00,22.2,21.7,00.0,31.4,23.7,08.7,0000.0,0013.05,0005.41,0004.64
2021-12-18 13:32:00,,0830.4,4.99,0.00,22.3,22.4,00.0,31.4,24.0,08.7,0000.0,0013.07,0005.37,0004.63
2021-12-18 13:33:00,,0830.4,5.00,0.00,22.5,23.1,00.0,31.4,24.3,08.6,0000.0,0012.65,0005.32,0004.62
2021-12-18 13:34:00,,0830.4,5.00,0.00,22.6,23.4,00.0,31.5,24.5,08.5,0000.0,0012.31,0005.35,0004.62
2021-12-18 13:35:00,,0830.4,4.99,0.00,22.6,23.1,00.0,31.5,24.4,08.5,0000.0,0012.51,0005.37,0004.61
2021-12-18 13:36:00,,0830.4,5.00,0.00,22.6,22.7,00.0,31.5,24.3,08.5,0000.0,0012.02,0005.36,0004.61
2021-12-18 13:37:00,,0830.4,4.99,0.00,22.5,22.4,00.0,31.5,24.1,08.6,0000.0,0012.27,0005.37,0004.63
2021-12-18 13:38:00,,0830.5,5.02,0.00,22.5,22.1,00.0,31.5,24.0,08.6,0000.0,0012.58,0005.40,0004.68
2021-12-18 13:39:00,,0830.5,4.99,0.00,22.4,21.9,00.0,31.4,23.9,08.7,0000.0,0012.56,0005.46,0004.72
2021-12-18 13:40:00,,0830.5,4.99,0.00,22.3,21.8,00.0,31.4,23.8,08.6,0000.0,0012.41,0005.50,0004.73
2021-12-18 13:41:00,,0830.4,5.01,0.00,22.3,21.6,00.0,31.4,23.8,08.6,0000.0,0012.34,0005.52,0004.73
2021-12-18 13:42:00,,0830.4,4.98,0.00,22.2,21.5,00.0,31.4,23.7,08.6,0000.0,0011.73,0005.51,0004.73
2021-12-18 13:43:00,,0830.4,5.02,0.00,22.2,21.5,00.0,31.4,23.7,08.7,0000.0,0011.59,0005.51,0004.73
2021-12-18 13:44:00,,0830.5,4.99,0.00,22.3,22.2,00.0,31.4,23.9,08.6,0000.0,0012.08,0005.52,0004.74
2021-12-18 13:45:00,,0830.5,5.00,0.00,22.4,22.9,00.0,31.4,24.2,08.6,0000.0,0012.21,0005.50,0004.75
2021-12-18 13:46:00,,0830.5,4.99,0.00,22.5,23.4,00.0,31.4,24.4,08.5,0000.0,0011.55,0005.48,0004.77
2021-12-18 13:47:00,,0830.5,5.00,0.00,22.6,23.2,00.0,31.5,24.4,08.5,0000.0,0011.31,0005.47,0004.78
2021-12-18 13:48:00,,0830.5,5.00,0.00,22.6,22.8,00.0,31.5,24.3,08.5,0000.0,0011.87,0005.44,0004.78
2021-12-18 13:49:00,,0830.5,5.01,0.00,22.5,22.5,00.0,31.5,24.2,08.5,0000.0,0012.14,0005.42,0004.76
2021-12-18 13:50:00,,0830.5,5.00,0.00,22.5,22.2,00.0,31.5,24.1,08.5,0000.0,0012.23,0005.38,0004.74
2021-12-18 13:51:00,,0830.5,5.01,0.00,22.4,22.0,00.0,31.4,24.0,08.5,0000.0,0012.66,0005.34,0004.72
2021-12-18 13:52:00,,0830.6,4.99,0.00,22.4,21.8,00.0,31.4,23.9,08.6,0000.0,0013.50,0005.33,0004.72
2021-12-18 13:53:00,,0830.5,5.01,0.00,22.3,21.7,00.0,31.4,23.8,08.6,0000.0,0013.99,0005.33,0004.71
2021-12-18 13:54:00,,0830.5,4.99,0.00,22.3,21.5,00.0,31.4,23.8,08.6,0000.0,0015.46,0005.37,0004.70
2021-12-18 13:55:00,,0830.5,5.01,0.00,22.2,21.5,00.0,31.4,23.7,08.6,0000.0,0015.21,0005.40,0004.71
2021-12-18 13:56:00,,0830.6,4.99,0.00,22.3,22.1,00.0,31.4,23.9,08.6,0000.0,0015.56,0005.38,0004.70
2021-12-18 13:57:00,,0830.6,5.01,0.00,22.4,22.8,00.0,31.4,24.2,08.6,0000.0,0015.65,0005.39,0004.69
2021-12-18 13:58:00,,0830.6,4.99,0.00,22.5,23.2,00.0,31.4,24.4,08.5,0000.0,0016.26,0005.37,0004.68
2021-12-18 13:59:00,,0830.6,5.01,0.00,22.6,23.0,00.0,31.4,24.4,08.5,0000.0,0015.12,0005.37,0004.66
